sat.trackr.live / text

‹ back to catalog

STARLINK-2063

NORAD 48553 · 2021-041A

PAYLOAD ACTIVE UNKNOWN

§ Identity

Operator
Country
US
Launch date
2021-05-15
Launch site
AFETR
Launch vehicle
Mass (kg)
RCS (m²)

Purposes: comms

External: N2YO · Heavens-Above · Gunter

§ Orbital elements

Epoch: 2026-09-19T14:40:20.913888Z

Period
94.01 min
Inclination
53.1628°
Eccentricity
0.0001456
Mean motion
15.31708298 rev/d
Perigee alt
469.7 km
Apogee alt
471.7 km
Semi-major
6,848.9 km
B*
6.2000e-5
RAAN
304.3349°
Arg perigee
99.3528°
Mean anomaly
260.7638°
Rev number
29,499

§ Raw data

STARLINK-20631 48553U 21041A   26262.61135317  .00001560  00000+0  62000-4 0  99912 48553  53.1628 304.3349 0001456  99.3528 260.7638 15.31708298294999

JSON: /api/v1/satellites/48553 · /tle

For live sub-satellite position, see the globe view (requires WebGL).

§ Visibility from observer

Set your observer location to see the next 7 days of passes ≥ 10°. The values pass through the URL so the page stays shareable.

No JS? Fill the form by hand. The geolocation button needs JavaScript.